Dewpoint
57 57 58 59 60 62 63 65 65 66 67 67 67 67 67 68 69 70 71 70 70 70 71 70 70 70 70 70 70 71 71 72 72 72 72 73 74 76 76 76 76 76 76 76 75 76 74 73 74 74 73 72 72 71 71 71 70 70 68 68 63 63 64 66 66 65 61 61 64 65 65 66 73 71 67 65 64 64 65 65 67 68 69 71 71
56 57 58 59 59 62 63 65 66 65 66 67 66 66 66 68 68 69 70 70 70 69 71 71 70 70 69 70 70 71 71 72 72 72 72 73 74 75 76 76 76 76 76 75 75 76 74 73 74 74 73 72 71 72 71 73 72 69 66 63 67 64 64 67 66 63 61 60 60 61 63 64 68 68 66 64 61 59 60 62 63 66 68 70 71
55 56 58 59 58 61 63 64 66 65 66 66 66 67 67 67 68 69 70 70 70 69 70 71 71 70 69 70 70 71 72 72 72 74 74 73 75 75 76 76 76 76 76 75 75 75 75 74 74 73 72 72 71 71 71 71 68 67 65 64 65 66 66 68 65 63 60 64 64 61 57 58 63 62 66 67 58 56 58 58 61 64 67 69 70
55 56 57 59 59 60 62 63 66 66 66 66 67 66 67 68 68 69 70 70 70 69 71 71 72 71 70 70 70 71 71 74 73 74 75 75 75 76 76 76 76 75 75 75 75 75 75 74 73 72 71 72 71 70 70 70 67 66 65 66 65 63 63 63 68 66 64 61 56 58 58 59 56 56 61 62 61 56 56 57 59 62 64 66 68
55 55 56 59 59 60 61 63 65 66 67 66 67 67 67 68 68 69 69 70 70 70 70 71 72 72 72 72 72 72 72 73 72 73 74 75 75 76 76 76 76 75 75 75 75 75 75 74 73 72 71 71 71 70 70 69 67 66 66 68 65 63 63 65 67 66 63 64 62 59 57 56 57 59 61 58 63 55 55 56 61 59 62 65 65
56 56 56 58 59 60 61 62 64 65 66 66 66 67 67 67 68 69 70 70 70 70 70 71 71 71 71 70 70 70 70 71 70 71 73 74 75 76 76 77 76 75 75 75 75 75 74 74 73 72 71 72 72 70 69 68 67 66 67 66 65 65 65 63 63 67 67 70 64 62 60 57 58 60 57 54 61 64 58 59 61 57 61 63 62
57 56 56 57 59 60 61 62 62 64 66 67 67 67 67 67 69 69 70 71 71 71 71 71 71 71 71 70 70 69 70 70 71 71 73 74 75 75 76 76 76 76 75 75 75 75 74 74 73 73 72 72 73 70 68 68 67 66 68 66 66 69 65 63 64 64 62 64 65 65 66 67 64 59 56 58 55 58 62 59 57 57 59 58 61
57 57 57 57 59 60 61 62 62 63 65 67 67 68 68 68 68 69 70 72 71 72 71 71 71 71 71 70 70 70 70 71 71 72 73 74 74 75 75 76 76 76 75 75 74 74 74 73 73 73 72 71 72 70 68 68 68 67 69 68 67 67 65 63 62 63 60 61 69 65 67 67 63 62 61 57 57 54 54 59 56 59 60 58 59
57 57 57 58 59 60 61 62 62 63 64 66 67 68 68 68 68 69 70 72 72 72 72 72 72 71 71 71 71 71 71 72 72 72 73 74 73 74 74 75 76 76 75 74 74 73 74 74 73 72 71 71 72 70 67 68 67 68 68 67 67 67 66 65 64 63 63 63 62 62 62 63 63 63 64 62 59 56 55 57 56 59 59 59 60
57 57 58 58 59 60 61 61 62 63 64 66 67 68 68 68 69 69 69 70 72 72 72 72 72 72 71 71 71 71 71 72 73 72 72 73 73 73 74 74 75 75 75 74 73 73 73 74 73 72 71 70 71 67 67 67 68 68 67 66 67 67 66 65 63 63 64 64 63 63 62 61 61 60 59 59 58 56 52 53 56 55 55 56 61
56 57 58 58 59 59 61 61 62 63 64 65 67 68 69 69 69 69 70 70 71 72 72 72 72 72 71 71 71 71 71 72 72 72 72 73 72 73 73 73 74 75 74 74 73 72 73 74 73 71 70 71 71 67 67 67 67 67 67 67 67 66 65 65 66 65 65 66 64 63 62 60 60 58 58 59 58 57 56 56 56 58 54 55 59
55 56 58 58 59 59 61 61 62 63 64 65 66 68 69 69 69 69 70 71 71 72 72 72 72 72 71 71 71 72 72 72 72 72 72 72 72 72 73 73 73 74 74 74 73 73 73 73 72 71 70 69 69 67 67 68 67 67 67 67 66 66 65 66 65 65 65 64 64 64 63 63 63 61 60 59 58 58 57 56 56 57 58 59 63
54 56 57 58 59 59 60 62 63 63 64 65 66 67 69 70 70 70 70 71 71 71 72 72 72 71 71 71 71 72 72 72 72 72 72 72 72 72 72 72 72 73 73 73 73 72 73 72 71 70 69 68 68 67 67 68 67 66 67 67 66 65 64 63 62 62 65 63 63 65 64 65 64 64 63 61 59 60 57 56 57 58 56 57 59
52 55 57 59 59 59 60 62 63 63 64 65 65 67 68 70 70 70 70 71 71 71 71 71 72 72 72 71 71 72 72 72 72 72 72 72 72 72 72 71 72 72 72 72 73 72 72 72 71 70 69 68 67 67 67 67 67 66 67 67 65 65 64 64 63 62 63 64 63 63 63 63 63 64 64 62 62 59 57 55 58 58 58 57 59
51 53 56 58 60 60 60 61 63 64 64 64 65 67 68 69 70 70 70 71 72 72 71 71 71 72 72 72 72 72 72 72 72 72 72 72 72 72 72 72 72 72 72 72 73 72 72 71 70 70 68 67 66 67 67 66 66 66 66 66 66 65 64 64 62 62 63 63 64 62 62 63 63 62 63 62 61 59 59 58 58 56 56 57 58
51 52 54 57 60 60 60 61 62 64 64 64 65 67 67 69 70 70 70 71 71 72 72 71 71 71 72 72 72 72 73 72 72 72 72 72 72 72 72 72 72 72 72 72 72 72 71 70 70 69 67 66 65 66 66 65 65 65 65 65 64 65 64 63 62 63 62 63 63 64 63 62 64 63 63 63 62 62 62 61 59 57 55 53 55
52 53 53 55 59 60 60 61 62 64 64 65 65 66 67 68 70 70 71 71 71 72 72 72 71 71 72 72 72 73 73 72 72 72 72 72 72 71 72 72 72 72 72 72 72 71 71 70 70 68 66 65 64 65 65 65 65 65 64 64 63 63 64 64 63 62 62 62 63 65 62 62 63 64 64 63 63 63 63 61 59 57 57 55 53
53 53 54 55 57 60 60 60 61 63 64 65 65 66 67 68 69 70 70 71 71 71 72 72 72 71 71 72 73 73 73 73 72 72 72 72 71 71 71 72 72 72 72 72 71 71 71 72 70 67 65 65 64 65 64 64 65 64 64 64 64 64 63 64 64 62 62 63 64 64 63 63 65 64 63 63 64 63 62 62 62 61 59 56 55
53 53 54 55 56 58 60 60 61 63 65 65 65 66 67 68 69 70 70 70 71 71 72 72 72 72 72 72 72 73 73 73 73 72 72 71 71 71 71 71 71 72 72 72 71 71 70 71 70 67 65 65 64 65 64 64 64 64 64 63 64 64 63 62 63 64 63 64 64 64 64 63 64 63 63 63 63 64 63 63 63 63 61 59 59
52 53 54 55 56 57 59 60 61 62 64 65 65 66 66 67 69 69 70 71 71 71 72 72 72 72 72 72 73 73 73 73 73 73 72 71 71 71 71 71 71 72 72 72 71 71 70 70 69 66 64 64 65 65 64 63 63 63 64 63 64 64 63 62 63 65 64 64 63 62 63 63 64 64 64 63 64 65 64 64 63 62 62 61 61
51 53 54 56 56 57 59 60 61 63 65 65 65 65 66 67 68 69 70 70 71 71 71 72 72 72 73 72 73 73 73 73 73 73 72 72 71 71 71 71 72 71 71 71 71 71 70 70 68 66 64 64 65 65 64 63 63 62 63 63 63 64 63 63 63 64 64 64 63 63 63 64 64 63 63 63 64 65 65 64 64 62 61 62 61
51 52 53 55 56 58 59 61 62 63 64 65 65 65 66 67 68 69 69 70 70 71 71 72 72 72 72 73 73 73 74 74 73 73 72 72 72 71 71 71 71 71 71 71 71 70 70 69 67 66 65 64 64 65 65 64 63 62 63 63 63 63 63 63 64 63 64 64 63 63 62 63 65 63 63 63 63 64 64 63 63 63 62 63 63
50 52 53 54 56 58 60 62 63 63 65 65 65 65 65 66 67 68 69 70 71 71 71 72 72 72 73 73 73 73 74 74 73 73 72 72 72 72 72 71 71 71 71 71 70 70 70 69 67 66 66 65 64 64 65 64 63 62 62 63 63 62 62 62 63 63 64 64 63 63 62 62 64 64 63 62 63 63 63 62 62 63 62 63 63
51 52 53 54 55 57 60 62 63 64 65 65 65 65 65 66 67 68 69 70 71 71 72 72 72 72 72 73 73 74 73 73 73 73 72 72 72 72 72 71 71 71 71 71 70 70 70 68 67 66 66 65 65 65 64 64 64 63 62 63 62 62 62 62 62 63 63 63 63 63 63 63 64 64 63 62 63 63 63 62 62 63 63 62 63
51 52 54 54 55 57 59 61 63 64 65 65 65 65 65 66 67 68 69 70 71 71 72 72 72 72 72 73 73 73 73 73 73 73 72 72 71 71 72 71 71 71 71 71 70 69 69 68 67 66 66 65 65 65 64 64 64 64 63 62 63 63 62 62 62 63 65 62 62 62 62 63 64 63 63 63 63 62 62 62 62 62 64 63 63
51 53 53 54 56 58 59 60 62 63 64 65 66 65 65 66 67 68 69 70 70 71 72 72 72 72 72 72 73 73 73 73 73 73 73 72 72 71 71 71 71 71 71 71 70 69 68 68 68 67 66 65 65 65 65 64 63 64 63 63 63 63 63 63 62 63 63 63 62 62 62 63 63 63 62 62 62 62 62 62 62 61 63 63 63
52 53 54 55 57 58 59 60 61 62 63 65 65 65 65 66 66 68 69 70 71 71 72 72 72 72 72 72 73 73 73 73 73 73 73 72 72 71 71 71 71 70 70 70 70 69 69 68 67 67 66 66 65 65 65 64 64 64 64 63 63 63 63 63 64 63 63 63 63 62 63 63 63 63 61 61 62 62 62 62 62 61 62 63 63
52 53 54 55 57 59 59 60 60 61 63 64 65 65 65 65 66 67 68 70 71 71 72 72 72 72 72 73 73 73 73 73 73 73 73 72 72 72 71 71 71 71 70 70 70 69 69 68 67 66 66 66 65 65 65 65 64 63 63 63 63 63 63 63 63 64 64 63 63 63 63 63 63 63 62 61 62 61 61 61 62 62 63 63 62
51 53 54 55 57 59 59 59 60 61 62 64 65 65 66 66 66 67 68 69 70 71 72 72 72 72 72 73 73 73 73 73 73 73 72 72 72 72 71 71 71 71 71 70 70 69 69 69 68 67 66 66 66 65 65 65 64 64 63 63 63 63 62 62 63 63 63 63 63 64 63 63 65 67 67 66 64 64 62 61 62 63 63 63 62
51 53 54 56 57 58 59 60 60 60 62 63 65 65 65 65 65 66 67 68 70 71 71 72 72 72 72 73 73 73 73 73 73 72 72 72 72 72 71 71 71 71 70 70 70 70 69 69 68 68 67 67 66 66 64 61 62 64 64 64 63 63 62 62 63 63 63 64 63 63 64 67 68 69 69 68 66 65 65 62 61 63 64 63 62
52 53 54 56 57 58 59 61 61 61 62 63 64 65 65 65 65 65 66 68 69 70 71 72 72 72 72 73 73 73 73 73 73 73 72 72 71 71 71 71 71 71 71 70 70 69 69 69 69 68 67 67 67 66 61 60 61 62 64 64 64 63 63 63 63 63 63 64 64 64 64 66 69 69 67 68 67 65 65 64 63 64 64 63 61
52 54 55 56 58 59 60 61 62 62 62 63 64 64 65 65 65 65 65 67 68 69 70 71 72 72 72 72 72 73 73 73 73 72 72 72 71 71 71 70 70 70 70 70 69 69 69 69 69 69 68 68 67 63 60 60 60 61 63 65 64 64 64 63 63 63 63 63 63 64 64 65 66 66 66 66 67 66 64 64 63 63 63 63 62
53 55 56 56 57 58 60 61 62 62 63 63 64 64 64 65 65 65 66 66 67 68 70 71 71 72 72 72 72 72 72 72 72 72 72 72 71 71 70 70 70 70 70 70 69 69 69 69 69 69 68 68 68 63 60 59 60 60 61 64 64 64 64 63 63 63 63 63 63 64 64 64 65 69 67 65 65 65 64 63 63 64 64 63 62
54 55 56 56 57 58 59 61 62 62 63 63 65 64 64 65 65 65 65 66 67 68 69 70 71 72 72 72 72 72 72 72 72 72 72 72 71 71 70 70 69 70 69 69 69 69 69 69 69 69 69 68 68 61 59 58 59 59 61 63 64 64 64 63 63 63 63 63 64 64 63 64 65 66 66 65 65 64 63 63 63 63 63 64 63
54 56 56 57 58 58 59 60 61 62 63 63 64 65 65 64 65 65 65 66 67 68 69 70 71 71 72 72 72 72 72 72 72 72 72 72 71 71 70 70 69 69 69 69 68 68 69 69 69 69 69 69 68 59 58 58 58 58 59 62 64 64 64 63 63 64 64 64 64 64 64 64 65 66 65 64 64 63 62 62 62 64 64 64 64
55 56 57 57 57 57 58 60 61 62 63 63 63 65 65 64 65 65 65 66 66 67 68 70 71 71 71 72 72 71 71 72 72 72 72 72 72 71 71 70 70 70 70 70 69 69 69 69 69 69 69 68 67 57 58 57 57 57 59 63 64 63 63 63 63 63 64 65 65 65 64 64 65 65 64 62 64 64 63 63 63 64 63 63 64
53 58 57 58 57 58 59 61 61 61 62 63 63 64 65 65 65 65 65 65 66 66 67 69 70 71 71 72 72 71 71 71 71 71 71 72 72 72 71 71 70 70 70 70 69 69 69 69 69 69 69 68 64 58 57 56 56 57 58 63 63 63 64 64 64 65 65 65 66 65 65 65 65 64 63 60 62 67 63 63 63 62 61 61 62
52 57 59 61 60 59 60 61 62 62 62 63 63 64 65 65 65 65 65 65 66 66 67 68 69 70 71 71 72 72 71 71 71 71 71 71 72 72 72 71 70 70 70 70 70 70 70 70 69 69 69 67 64 59 56 55 56 56 59 63 63 63 63 64 65 66 66 66 66 68 67 64 65 65 62 60 61 65 63 63 62 60 60 61 61
42 52 58 60 62 63 63 65 65 66 66 65 65 65 65 65 66 66 66 65 65 65 66 67 68 69 70 71 72 72 72 72 72 71 71 71 72 72 72 71 71 70 70 70 70 70 69 69 69 69 65 65 65 59 54 55 55 55 59 64 63 63 62 64 66 66 66 65 66 69 67 65 63 63 59 59 60 65 63 62 61 60 60 60 59
54 47 51 57 63 65 65 64 64 66 68 68 67 66 65 66 66 66 65 65 65 65 66 66 66 68 69 70 71 72 72 72 72 72 72 72 72 72 72 71 71 71 70 70 69 69 68 67 67 67 66 66 65 63 59 54 54 54 56 64 63 62 62 63 65 66 65 63 65 65 66 60 59 59 57 56 57 60 62 61 61 60 60 60 55
63 59 67 62 63 65 64 64 65 66 68 69 69 67 66 66 66 66 65 65 65 66 66 66 66 66 67 69 70 72 72 73 73 73 73 72 72 72 71 71 71 70 70 69 68 68 67 66 66 66 65 65 65 63 60 53 53 54 55 59 62 61 61 62 65 65 65 64 64 64 65 61 57 57 55 53 54 57 61 61 61 61 59 56 54
66 68 65 65 63 66 66 65 65 66 67 68 69 68 67 66 66 65 65 65 66 66 66 65 65 65 66 67 69 71 72 73 73 73 73 73 72 72 71 71 70 69 69 68 67 67 66 65 65 65 65 65 65 63 62 54 53 53 53 55 61 61 61 63 64 65 65 65 65 64 63 61 56 55 52 51 51 54 58 61 59 54 52 55 56
66 65 66 67 67 65 66 67 67 66 66 67 68 68 68 67 66 66 66 66 65 65 65 65 65 65 65 66 69 71 72 74 74 73 73 72 72 71 71 70 69 69 68 67 67 66 66 65 65 65 65 65 64 62 58 59 52 51 51 52 56 60 60 64 64 64 65 65 64 64 64 60 54 51 49 49 50 53 56 57 49 50 51 54 57
66 66 67 67 67 69 68 68 69 70 70 70 69 68 68 67 67 67 67 66 66 66 65 65 66 66 67 68 70 72 73 74 73 73 73 72 71 71 70 69 69 68 68 67 66 66 65 65 64 64 65 65 65 63 58 56 55 51 50 51 54 57 59 63 64 64 65 64 64 63 62 54 49 46 47 48 50 53 56 48 47 50 51 54 55
65 66 67 67 66 67 69 67 67 68 68 69 70 69 68 68 69 71 73 73 72 71 70 70 71 71 71 72 73 73 73 73 73 73 72 71 70 70 69 68 68 67 67 66 66 65 65 65 64 64 65 65 65 63 60 58 56 52 51 51 55 56 58 59 64 64 65 64 61 57 52 48 48 46 48 49 50 51 50 47 48 50 56 54 54
66 66 67 67 66 67 67 67 66 66 68 68 69 70 69 68 69 70 73 74 73 72 72 72 73 73 73 73 73 73 73 73 72 72 71 71 70 69 68 68 67 66 66 66 65 65 65 65 64 65 65 65 65 63 60 58 57 55 54 53 54 57 60 61 62 62 60 58 54 51 49 49 49 50 53 54 55 54 51 51 50 53 54 53 52
65 66 66 65 65 66 66 66 67 68 67 69 69 69 69 70 71 71 73 74 73 73 72 72 72 72 72 72 72 72 72 71 71 71 71 70 70 69 69 68 67 67 66 65 65 65 65 65 64 65 65 65 64 61 59 58 57 56 56 57 56 57 56 56 59 58 56 55 53 54 53 53 53 53 55 56 56 55 53 52 53 53 53 53 53
65 65 66 64 64 65 65 66 67 68 68 68 68 67 68 70 72 72 72 72 71 71 71 71 71 71 71 72 71 71 71 70 69 69 69 68 68 68 67 66 65 66 65 64 64 64 64 64 64 64 65 64 63 61 60 58 57 57 57 58 59 58 58 58 57 56 56 57 56 54 53 54 54 54 55 55 54 55 55 54 52 53 53 54 55
64 64 65 65 64 65 65 66 67 68 68 67 67 67 69 70 71 72 71 71 70 69 70 69 69 70 70 70 70 70 69 67 62 58 57 63 67 66 65 63 61 66 65 64 64 64 64 64 64 65 65 63 62 61 60 56 59 55 57 58 60 59 57 58 58 55 57 56 55 55 55 54 54 54 54 54 52 52 54 54 54 53 53 52 52
64 64 64 65 65 65 66 66 66 67 67 67 67 67 68 69 70 71 71 69 69 69 69 69 69 69 69 69 69 68 67 65 62 59 57 53 49 44 52 63 61 57 60 58 58 63 64 63 65 65 64 63 62 62 56 52 50 50 50 52 54 53 52 55 53 53 57 55 55 55 55 54 53 53 52 52 52 52 53 53 53 55 54 53 53
63 64 64 65 65 66 66 66 67 67 67 67 67 67 67 68 68 69 69 69 68 68 68 67 68 68 67 67 66 65 64 63 61 60 59 57 54 51 43 43 49 50 48 45 47 50 54 58 64 64 63 58 58 54 49 49 48 48 48 48 49 49 48 48 49 55 56 55 54 55 54 54 54 53 52 52 53 52 53 52 52 52 54 54 54